Wind_Speed
31 28 24 21 19 19 18 18 18 19 19 20 19 19 18 17 16 15 15 16 16 17 18 19 20 20 20 21 21 22 22 23 24 24 24 25 26 26 27 29 30 31 32 32 33 34 35 36 36 36 36 36 36 37 37 37 38 38 39 39 39 39 39 40 40 40 40 40 40 40 40 40 40 41 41 41 41 42 42 42 43 43 44 44 44 44
26 24 21 19 17 16 16 16 16 16 16 17 17 17 17 17 16 16 16 16 17 17 18 18 19 20 20 21 22 22 23 23 24 25 25 26 27 28 29 30 31 32 33 34 35 35 36 36 37 37 37 37 37 38 38 38 39 39 39 39 40 40 40 40 40 40 40 40 40 40 40 40 40 40 41 41 41 42 42 42 43 43 43 44 44 44
24 23 22 20 18 17 16 16 16 16 16 16 16 17 17 17 16 16 16 16 16 17 17 18 19 20 21 22 22 23 23 24 25 25 26 27 28 29 29 30 31 32 33 34 35 36 36 37 37 37 37 38 38 38 38 39 39 39 39 40 40 40 40 40 39 39 40 40 40 40 40 40 40 40 41 41 41 42 42 42 43 43 43 44 44 44
25 25 24 22 21 20 18 18 18 18 17 17 17 17 17 17 16 16 16 16 16 17 18 19 19 20 21 22 23 23 24 25 26 27 27 28 28 29 30 31 32 32 33 34 35 36 36 37 37 37 37 38 38 38 38 39 39 39 39 39 39 39 39 39 39 39 39 39 39 40 40 40 40 41 41 41 42 42 42 43 43 43 44 44 44 44
25 25 24 23 22 22 21 20 20 19 19 18 18 18 18 17 17 17 17 17 17 18 19 20 20 21 22 22 23 24 25 26 27 27 28 28 29 29 30 31 31 32 33 34 34 35 36 36 37 37 37 37 38 38 38 38 38 38 39 39 39 39 39 39 39 39 39 39 40 40 40 40 41 41 41 42 42 42 43 43 43 44 44 44 44 44
25 24 23 22 22 22 22 21 21 20 20 19 19 19 18 18 18 18 18 18 19 19 20 20 21 22 22 23 24 25 26 27 27 28 28 28 29 29 30 31 31 32 33 34 34 35 35 36 36 36 37 37 37 37 37 38 38 38 38 39 39 39 39 39 39 40 40 40 40 40 40 41 41 41 41 42 42 42 42 43 43 43 43 43 43 43
25 23 22 21 21 21 21 21 21 20 20 19 19 19 18 18 18 18 19 19 20 20 21 22 22 23 24 25 25 26 27 28 28 28 28 29 29 30 30 31 32 33 33 34 34 35 35 35 36 36 36 36 37 37 37 38 38 38 39 39 39 39 39 40 40 40 40 40 40 40 40 40 40 40 40 40 40 40 40 40 41 41 41 40 40 40
23 22 21 21 20 20 20 20 20 20 19 18 18 18 18 18 19 19 20 20 21 22 23 24 24 25 26 27 27 28 28 29 29 29 29 29 30 30 31 31 32 33 33 34 34 35 35 36 36 36 37 37 37 37 38 38 38 38 38 38 38 38 38 38 38 38 38 38 37 37 37 37 37 37 37 37 37 37 37 37 37 37 37 36 36 36
20 20 20 20 20 20 20 19 19 19 19 18 18 18 19 19 20 21 22 22 23 24 25 26 27 27 28 28 29 29 29 29 29 30 30 30 30 31 31 32 32 33 34 34 35 35 36 36 36 36 37 37 37 37 37 37 37 36 36 36 36 35 35 35 34 34 34 34 33 33 33 33 33 32 32 32 32 32 32 32 32 32 32 32 32 32
17 18 19 19 19 19 19 19 19 19 19 19 19 20 20 21 22 23 23 24 25 26 27 27 28 28 29 29 30 30 30 30 30 30 30 30 31 31 32 32 33 34 34 35 35 35 36 36 36 35 35 35 34 34 34 33 33 33 32 32 31 30 30 30 29 29 29 28 28 28 28 28 28 28 28 28 28 28 28 28 28 28 29 29 29 29
14 15 15 16 17 17 18 18 19 19 19 20 20 21 22 22 23 24 25 26 27 27 28 28 28 29 29 29 30 30 31 31 31 31 31 31 32 32 33 33 34 34 34 34 34 34 34 33 33 32 31 31 30 30 29 28 28 27 26 26 25 25 24 24 24 24 23 23 23 24 24 24 24 24 24 25 25 25 26 26 26 26 27 27 27 28
13 14 14 15 15 16 17 17 18 19 19 20 21 22 23 24 25 25 26 27 27 28 28 29 29 29 29 30 30 31 31 31 31 31 32 32 33 33 32 32 32 32 32 32 31 31 30 29 28 27 26 25 25 24 23 23 22 21 21 20 20 20 19 19 20 20 20 20 20 21 21 22 22 22 23 23 24 24 25 25 26 26 26 27 27 27
15 15 16 17 17 18 18 19 19 20 21 21 22 23 24 25 25 25 26 26 27 28 28 28 29 29 30 31 31 31 32 32 32 32 32 32 32 31 30 30 29 28 28 27 26 25 24 23 22 21 21 20 20 19 18 17 17 17 16 16 16 16 17 17 18 18 19 19 20 20 21 21 22 22 23 23 24 24 25 25 25 26 26 27 27 27
18 18 19 19 20 20 20 21 21 21 22 22 23 23 24 24 25 25 26 26 27 28 28 28 29 30 31 32 32 32 31 31 30 30 30 30 29 28 26 25 24 24 23 22 21 20 19 18 17 17 16 16 15 15 15 14 14 14 14 15 15 16 17 17 18 18 19 20 20 21 21 22 22 22 23 23 23 24 24 24 25 25 25 26 26 27
20 21 21 21 22 22 22 22 22 23 23 23 23 23 24 24 25 25 26 27 27 28 29 29 30 30 31 32 32 31 30 28 27 26 26 26 25 23 21 20 20 19 18 17 16 15 14 14 14 14 14 13 13 13 14 14 14 14 15 16 16 17 18 18 19 19 20 20 21 21 21 22 22 22 22 23 23 23 23 24 24 24 24 25 25 26
22 23 23 23 23 24 24 24 24 24 24 24 25 25 25 25 26 27 27 28 28 29 29 29 29 30 30 31 31 29 26 24 22 22 22 22 20 18 16 16 15 15 14 13 12 12 12 12 12 13 13 13 14 14 14 15 15 16 16 17 18 18 19 19 20 20 20 21 21 21 22 22 22 22 22 22 22 22 22 23 23 23 24 24 24 25
24 24 25 25 25 26 26 26 26 26 26 27 27 27 27 27 27 28 28 29 29 29 29 29 28 28 28 28 28 25 21 19 17 17 18 17 15 13 12 12 12 12 12 11 11 11 11 12 13 13 14 14 15 15 16 16 17 17 18 18 19 19 20 20 21 21 21 21 22 22 22 22 22 22 22 22 22 22 22 22 22 23 23 23 24 24
26 26 26 27 27 27 28 28 28 28 28 28 28 28 28 28 28 29 29 29 28 28 28 27 26 25 24 24 23 21 16 14 14 14 14 14 12 10 10 11 11 11 11 11 11 12 12 13 14 14 15 16 16 17 17 17 18 18 19 19 20 21 21 21 22 22 22 22 22 22 22 22 22 22 22 22 22 21 22 22 22 22 22 23 23 24
28 28 28 28 28 28 29 29 29 29 29 29 29 29 29 29 29 29 28 27 27 26 25 24 22 21 20 19 18 15 12 11 11 11 11 11 10 9 9 10 11 11 11 11 12 12 13 14 15 15 16 17 17 18 18 19 19 20 20 21 21 22 22 22 23 23 23 23 23 23 23 23 23 22 22 22 22 22 21 22 22 22 22 23 23 24
28 29 29 29 29 29 29 29 29 29 29 29 29 29 29 28 28 27 26 25 23 22 21 19 18 17 16 15 13 11 10 9 10 10 10 10 9 9 10 11 11 12 12 12 12 13 14 15 16 16 17 18 18 19 19 20 20 21 21 22 22 23 23 24 24 24 24 24 24 24 24 23 23 23 23 22 22 22 22 22 22 22 22 22 23 23
28 28 28 28 28 29 29 29 29 29 29 29 28 28 27 26 25 24 23 21 20 18 17 16 15 14 13 12 10 9 9 9 9 10 10 10 10 10 10 11 12 12 12 13 13 14 15 15 16 17 18 19 19 20 20 21 21 22 22 23 23 24 24 24 25 25 25 25 25 25 24 24 24 24 23 23 23 23 22 22 22 22 22 22 23 23
28 28 27 27 27 27 28 28 28 28 27 27 26 25 24 23 22 21 19 18 16 15 14 13 13 12 11 10 9 9 9 9 10 10 11 11 11 11 11 12 12 13 13 13 14 14 15 16 17 18 19 19 20 20 21 22 22 23 23 24 24 24 25 25 25 25 25 25 25 25 25 25 25 24 24 24 24 23 23 23 23 23 23 23 23 23
26 26 26 26 26 26 26 26 26 26 25 24 23 22 21 20 19 17 16 15 14 13 12 12 11 10 10 10 9 9 9 9 10 11 11 12 12 12 12 12 13 13 13 14 14 15 16 17 18 19 19 20 20 21 22 22 23 23 24 24 25 25 25 25 25 26 26 26 25 25 25 25 25 25 25 25 25 24 24 24 24 23 23 23 23 23
25 25 25 25 25 25 25 25 24 24 23 22 21 19 18 17 16 15 14 13 12 11 11 11 10 10 10 10 10 10 10 10 10 11 12 12 13 13 12 12 13 13 14 14 15 15 16 17 18 19 20 20 21 22 22 23 23 24 24 25 25 25 25 26 26 26 26 26 26 26 26 26 26 26 26 26 26 26 26 25 25 25 25 24 24 24
25 25 25 24 24 24 24 23 22 22 21 19 18 17 15 14 13 13 12 11 11 11 11 11 11 11 11 11 11 11 10 10 10 11 11 12 13 13 13 13 13 13 14 14 15 16 17 18 19 20 20 21 21 22 23 23 24 24 25 25 25 25 25 25 26 26 26 26 26 27 27 27 27 27 27 27 27 27 27 27 26 26 26 26 25 25
24 24 24 24 23 23 22 22 21 20 19 17 16 15 14 13 12 12 11 11 11 11 11 11 12 12 12 13 13 12 11 11 10 11 11 11 12 13 13 13 13 13 14 14 15 16 17 18 19 20 20 21 22 22 23 24 24 24 25 25 25 25 25 25 26 26 26 26 27 27 27 28 28 28 28 28 28 28 28 28 28 28 27 27 26 26
24 24 23 23 23 22 21 21 20 19 17 16 14 13 13 12 12 11 11 11 11 11 11 12 12 13 13 14 14 14 13 11 11 10 11 11 12 12 13 13 13 13 14 14 15 15 16 17 18 19 20 21 21 22 23 23 24 24 24 25 25 25 25 26 26 26 26 27 27 27 28 28 28 29 29 29 29 29 29 29 29 29 29 28 27 26
24 23 23 22 22 21 20 20 19 18 16 15 13 13 12 12 12 11 11 11 11 11 12 12 13 14 14 14 15 15 14 12 11 11 11 11 11 12 13 13 14 13 13 13 14 14 15 17 18 19 19 20 21 21 22 23 24 24 24 25 25 25 26 26 26 26 26 27 27 28 28 28 29 29 30 30 30 30 30 30 30 30 30 29 28 27
24 23 23 22 21 20 19 19 18 17 16 14 13 12 12 12 12 12 12 12 12 12 12 13 13 14 14 15 15 15 15 14 12 12 11 11 12 12 13 13 13 13 13 12 12 13 14 16 17 18 18 19 20 20 21 22 23 24 24 25 25 26 26 26 26 27 27 27 28 28 29 29 30 30 30 31 31 31 31 31 31 31 31 30 29 28
24 24 23 22 21 20 19 18 17 16 15 14 13 12 12 12 12 12 12 12 12 13 13 13 13 14 14 14 15 16 16 15 14 13 12 12 12 12 13 13 13 13 13 12 11 12 13 15 16 17 17 18 19 20 21 22 23 24 25 25 26 26 26 27 27 27 27 28 28 29 29 30 30 31 31 31 31 31 31 32 32 31 31 30 30 29
24 24 23 23 22 21 19 18 17 16 15 14 13 13 13 13 13 13 13 13 13 13 13 14 14 14 14 14 15 16 17 16 15 14 13 13 12 12 13 13 14 14 13 13 12 11 11 13 15 16 17 18 18 19 21 22 23 24 25 25 26 26 27 27 27 28 28 28 29 29 30 31 31 31 32 32 32 32 32 32 32 32 31 31 30 29
24 24 23 23 22 21 19 18 17 16 15 14 14 13 13 13 13 13 13 14 14 14 14 14 14 14 15 15 15 16 17 17 16 15 14 13 13 13 13 14 14 14 14 14 13 12 11 11 13 15 16 17 18 19 21 22 23 24 25 25 25 26 27 28 28 28 29 29 30 30 31 31 32 32 32 32 32 32 32 32 32 32 32 31 31 30
24 24 23 23 22 21 20 18 17 16 15 15 14 14 14 14 14 14 14 14 14 14 14 15 15 15 15 15 16 16 17 17 17 16 15 14 14 14 14 14 15 15 15 15 15 14 13 12 12 14 15 16 17 19 20 22 23 24 24 25 25 26 27 28 29 29 30 30 30 31 32 32 32 33 33 33 33 33 33 33 32 32 32 32 31 31
23 23 23 23 22 21 20 19 17 16 16 15 15 15 15 15 15 15 15 15 15 15 15 15 15 15 15 16 16 17 17 18 17 16 16 16 15 15 15 15 16 16 17 17 17 17 16 15 15 15 15 16 17 18 20 22 23 24 24 25 25 26 27 28 29 30 30 31 31 32 32 32 33 33 33 33 33 33 33 33 33 33 33 33 32 31
23 23 23 23 22 21 20 19 18 17 16 16 16 16 16 15 15 15 15 15 15 15 15 15 16 16 16 16 16 17 18 18 18 17 17 17 17 16 16 17 17 18 18 19 19 19 19 18 18 17 17 17 17 18 20 22 23 24 24 25 26 27 28 29 29 30 31 31 31 32 32 32 33 33 33 33 33 33 33 33 33 33 33 33 33 32
24 23 23 23 22 21 20 19 18 18 17 17 17 16 16 16 16 16 16 16 16 16 16 16 16 16 16 16 17 17 18 18 19 18 18 18 18 18 18 18 19 19 20 20 21 21 21 20 20 20 20 19 18 19 20 21 23 24 24 25 26 27 28 29 29 30 31 31 31 31 32 32 32 32 33 33 33 33 33 33 33 33 33 33 33 33
24 24 23 23 22 21 20 19 19 18 18 17 17 17 17 17 17 17 17 16 16 16 16 16 16 17 17 17 18 18 18 19 19 20 20 20 20 20 20 20 20 21 22 22 22 23 23 22 22 22 22 21 20 20 20 21 22 23 24 25 26 26 27 28 29 30 30 31 31 31 31 31 32 32 32 33 33 33 32 32 32 33 33 33 33 33
24 24 23 23 22 21 20 19 19 19 18 18 18 18 18 17 17 17 17 17 17 17 17 17 17 17 18 18 18 19 19 20 20 21 21 21 21 21 22 22 22 23 23 24 24 24 24 24 24 24 23 23 22 22 21 21 22 22 23 24 25 26 27 28 29 29 30 30 30 30 31 31 31 32 32 32 32 32 32 32 32 32 32 32 32 32
24 23 23 23 22 21 20 20 19 19 19 19 18 18 18 18 18 18 18 18 18 18 18 18 18 18 19 19 20 20 20 21 21 22 22 23 23 23 24 24 24 24 25 25 26 26 26 26 26 25 25 25 24 23 23 22 22 23 23 24 24 25 26 27 28 28 29 29 30 30 30 30 31 31 32 32 32 32 32 31 31 31 32 31 31 31
23 23 23 22 22 21 20 20 20 20 19 19 19 19 19 19 19 19 19 19 19 19 19 19 19 19 20 20 21 21 22 22 23 23 24 24 25 25 25 25 26 26 26 26 27 27 27 27 27 27 27 27 26 25 24 24 24 24 24 24 24 24 25 25 26 27 28 29 29 29 29 30 30 31 31 31 31 31 31 31 31 30 30 30 30 30
23 23 22 22 22 21 21 21 20 20 20 20 20 20 20 20 20 20 20 20 20 20 20 20 20 20 21 21 22 22 23 23 24 25 25 26 26 26 27 27 27 27 27 27 28 28 28 28 28 28 28 28 28 27 26 25 25 25 26 26 25 24 24 24 25 26 27 28 28 28 29 29 30 30 30 31 31 30 30 30 30 29 29 29 29 28
22 22 22 22 22 21 21 21 21 21 21 21 21 21 21 21 21 21 21 21 21 21 21 21 21 21 21 22 23 24 24 25 25 26 26 27 27 28 28 28 28 28 28 28 28 29 29 29 29 29 29 29 29 28 27 26 26 26 26 27 26 25 24 24 24 25 26 26 27 28 28 29 29 29 30 29 29 29 29 29 28 28 28 28 28 28
22 22 22 22 22 22 22 22 22 21 21 21 22 22 22 22 22 22 22 22 22 22 22 22 21 22 22 23 24 24 25 26 26 27 28 28 29 29 29 29 30 30 30 29 29 29 30 30 30 30 30 30 30 29 28 27 27 26 27 27 27 26 25 24 24 24 25 26 26 27 28 28 29 29 29 28 28 28 28 28 27 27 27 27 27 28
22 22 22 22 22 22 22 22 22 22 22 22 22 22 23 23 23 23 23 23 23 23 23 23 22 22 22 23 24 25 26 27 27 28 29 29 29 30 30 30 30 31 31 31 30 31 31 31 31 31 31 31 31 30 29 28 28 27 27 27 27 27 26 25 25 25 25 26 26 27 28 28 28 28 28 28 27 27 27 27 26 26 27 27 27 28
22 22 22 22 22 23 23 23 23 23 23 23 23 23 23 23 23 23 23 23 23 23 23 23 23 23 23 23 24 25 26 26 27 28 29 30 30 30 30 31 31 31 31 32 32 32 32 32 32 32 32 32 31 31 30 29 29 28 27 27 27 27 27 26 26 26 26 26 26 27 28 28 28 28 28 27 27 27 26 26 26 26 26 27 28 28
22 22 22 22 23 23 23 23 24 24 24 24 24 24 24 24 24 24 24 24 24 24 24 24 24 24 24 24 24 25 25 26 27 28 29 29 30 30 31 31 31 32 32 32 33 33 33 33 33 33 32 32 31 31 30 30 30 29 28 28 27 27 27 27 27 27 27 27 27 27 28 28 28 28 28 28 27 27 26 26 26 26 26 27 28 29
22 22 23 23 23 23 24 24 24 25 25 25 25 25 25 25 25 25 25 25 25 25 25 25 24 24 24 25 25 25 25 26 26 27 28 29 29 30 31 31 31 32 32 33 33 33 33 34 34 33 33 32 32 31 30 30 30 30 29 28 28 27 27 27 27 28 28 28 28 28 28 29 29 29 28 28 28 27 27 26 26 26 27 27 28 29
23 23 23 23 24 24 25 25 25 25 26 26 26 26 26 26 26 26 26 25 25 25 25 25 25 25 26 26 26 26 26 26 26 27 27 28 29 29 30 31 31 32 33 33 33 34 34 34 33 33 33 33 32 31 31 30 30 29 29 28 28 28 28 27 28 28 28 28 28 29 29 29 29 29 29 29 28 28 27 26 26 26 26 27 28 29
24 24 24 24 24 25 25 25 26 26 26 27 27 27 27 27 27 27 26 26 26 26 26 26 26 26 26 27 27 27 27 26 26 27 27 28 28 29 30 31 31 32 33 33 33 34 34 33 33 33 33 32 32 31 31 30 29 29 28 28 28 28 28 28 28 28 28 29 29 29 29 29 29 29 29 29 29 28 27 26 26 26 26 27 28 28
24 24 24 25 25 25 26 26 26 27 27 27 27 27 28 28 28 28 28 27 27 27 27 27 27 27 27 27 27 27 27 27 27 27 28 28 29 29 30 31 31 32 33 33 34 34 34 33 33 32 32 31 31 31 30 29 29 28 28 28 28 28 28 28 28 28 29 29 29 29 28 29 29 29 29 29 29 28 27 27 26 26 26 27 28 28
24 25 25 25 25 26 26 26 27 27 27 27 28 28 28 28 28 29 29 28 28 28 29 29 29 28 28 28 28 28 28 28 28 28 28 29 29 30 30 31 32 33 33 34 34 34 34 33 32 31 30 30 31 31 30 29 29 28 28 28 28 29 29 29 29 29 29 29 29 29 28 28 29 29 29 30 30 29 28 27 27 26 27 27 28 28
Wind_Direction
292 286 282 283 290 297 300 298 291 282 276 272 270 268 267 266 265 263 260 259 258 258 259 259 260 260 261 261 262 263 264 266 268 270 272 273 273 273 273 273 273 274 274 274 275 275 275 275 275 275 274 274 273 273 273 273 274 274 274 274 275 275 275 275 275 275 275 275 275 275 275 275 274 274 274 274 274 274 273 273 273 273 273 272 272 272
295 288 282 280 284 291 295 295 290 283 277 273 271 268 265 263 260 257 254 253 253 254 255 257 259 260 261 262 264 265 266 268 269 271 272 273 273 274 274 273 273 273 273 274 274 274 275 275 275 275 274 274 274 274 274 274 274 275 275 275 275 275 275 275 275 275 275 275 275 275 274 274 274 274 274 274 274 273 273 273 273 273 273 272 272 272
303 297 290 284 283 285 286 285 283 280 276 273 271 268 266 264 261 259 257 256 257 258 259 260 261 262 264 265 266 267 268 269 270 270 271 272 272 272 272 272 272 272 272 272 273 273 274 274 274 274 274 274 274 274 274 274 274 274 275 275 274 274 274 274 274 274 275 275 275 275 275 275 275 275 274 274 274 274 274 274 274 273 273 273 273 272
303 300 295 290 287 285 283 281 278 276 274 272 270 269 268 268 267 267 267 266 266 267 267 267 267 267 268 268 269 270 270 270 270 270 270 271 271 271 271 271 271 271 271 272 272 273 273 274 274 274 274 274 274 274 274 274 274 274 274 274 274 274 274 274 274 275 275 275 275 276 276 276 276 276 275 275 275 275 275 275 274 274 274 273 273 273
298 295 293 290 287 286 284 282 279 276 274 272 271 271 272 273 274 275 275 275 275 274 274 273 272 272 271 271 271 270 270 269 269 269 270 270 271 271 272 272 272 273 273 273 274 274 274 274 274 274 274 274 274 274 274 274 274 274 274 274 274 275 275 275 275 276 276 276 277 277 277 277 277 277 277 276 276 276 275 275 275 274 274 274 273 273
294 291 288 286 284 284 284 283 282 280 277 276 275 276 277 279 280 280 280 280 280 279 278 277 275 274 273 272 271 270 269 269 269 270 271 272 273 274 275 275 276 276 276 276 276 276 275 275 275 275 275 274 274 274 275 275 275 275 275 275 276 276 276 277 277 277 278 278 278 278 278 278 278 277 277 277 276 276 276 275 275 274 274 274 274 273
291 288 285 283 282 281 282 282 282 282 281 280 280 281 282 283 283 283 283 283 282 281 280 278 277 275 274 272 271 271 271 271 272 273 275 276 277 278 278 279 279 278 278 278 277 277 276 276 276 276 276 276 276 276 276 276 277 277 277 277 277 278 278 278 278 279 279 279 279 278 278 278 278 277 277 277 276 276 275 275 275 275 274 274 274 274
288 286 284 283 281 281 281 281 281 282 283 283 284 285 285 285 284 284 284 283 282 281 280 278 277 276 275 274 274 274 275 276 278 279 280 281 281 281 281 280 280 280 279 279 278 278 278 278 278 278 278 278 278 278 278 278 278 278 278 279 279 279 279 279 279 279 279 279 278 278 278 277 277 277 276 276 276 276 276 275 275 275 275 275 275 275
285 284 283 282 282 282 282 281 281 281 283 284 285 286 286 284 283 283 282 281 280 279 278 278 277 277 277 278 279 280 281 282 283 283 284 283 283 283 282 281 281 280 280 280 280 280 279 279 279 279 279 280 280 280 280 280 279 279 280 280 280 280 280 280 279 279 279 278 278 277 277 277 277 276 276 276 276 276 276 276 276 276 276 276 276 276
284 282 281 281 282 282 282 283 283 283 283 284 284 284 283 283 282 281 281 280 279 279 278 279 279 281 282 283 284 284 284 285 285 285 284 284 283 283 282 282 281 281 281 281 281 280 280 280 280 281 281 281 281 280 280 280 280 280 281 281 280 280 280 279 279 279 278 278 278 277 277 277 277 277 276 276 276 276 276 276 276 276 276 276 276 276
285 283 281 280 280 281 281 282 282 283 283 283 283 282 282 281 281 281 281 281 281 281 282 282 283 284 284 285 285 284 284 284 284 284 284 283 283 282 282 282 282 282 282 282 281 281 281 281 282 282 282 281 281 281 281 281 281 281 281 281 281 280 280 280 279 279 278 278 278 278 277 277 277 277 276 276 276 276 276 275 275 275 275 275 275 275
286 282 279 276 275 275 275 275 276 277 278 279 279 279 279 279 280 280 281 281 282 283 283 284 284 284 283 282 282 282 282 282 283 283 283 283 283 282 282 282 282 282 282 282 282 282 282 282 283 282 282 282 281 281 281 282 282 282 282 281 281 281 280 280 280 279 279 279 278 278 278 277 277 277 276 276 275 275 275 275 275 274 274 274 274 273
286 283 279 277 276 275 275 274 274 275 275 275 276 277 277 278 279 279 280 280 281 281 281 282 282 282 282 281 280 280 281 282 283 284 284 284 284 283 283 283 283 283 282 282 282 282 283 283 283 282 282 281 282 282 282 283 283 283 282 282 282 281 281 281 280 280 279 279 279 278 278 278 277 277 277 276 276 276 275 275 275 275 275 274 274 273
289 288 286 285 284 283 282 281 280 280 279 278 278 277 278 278 279 279 279 279 279 279 280 280 280 281 281 281 281 281 282 283 284 285 284 284 284 284 284 284 283 282 281 282 282 283 283 283 282 282 282 282 282 283 284 284 284 284 284 284 283 283 282 282 281 281 280 280 279 279 279 279 279 278 278 278 278 278 278 277 277 277 276 275 275 274
293 292 291 290 289 289 288 287 286 285 284 283 282 282 282 282 281 281 281 281 281 281 281 281 281 281 282 281 281 282 283 285 285 284 283 283 283 283 284 283 281 280 280 281 282 283 283 282 281 281 282 283 284 285 286 287 287 287 286 286 285 284 284 283 282 282 282 281 281 281 281 281 281 281 281 281 281 281 281 280 280 279 278 277 276 275
296 295 294 294 293 292 292 291 290 289 289 288 288 287 286 286 285 285 284 284 284 283 283 283 283 283 282 282 282 283 285 285 284 282 281 280 281 283 282 280 279 279 280 281 282 282 281 281 282 283 284 285 287 288 288 289 289 288 287 287 286 285 285 284 284 284 284 284 284 284 284 284 284 285 284 284 284 284 283 283 282 281 280 279 277 276
296 296 295 295 295 295 294 294 294 293 293 292 292 291 290 289 288 287 287 286 285 285 284 283 283 282 282 282 284 285 287 285 282 279 277 278 280 281 278 276 276 277 279 281 281 282 282 282 283 285 286 287 288 289 289 289 289 289 288 287 286 286 286 286 286 286 286 286 287 287 287 287 287 287 287 286 286 286 285 284 283 282 281 280 279 278
296 296 295 295 295 295 296 296 295 295 294 294 293 292 291 290 289 288 287 286 286 285 285 284 283 281 280 281 283 286 288 284 278 274 273 275 277 276 272 272 273 275 278 280 281 282 282 283 284 285 287 288 289 289 290 290 289 289 289 288 288 288 288 288 288 288 289 289 289 289 289 289 289 288 288 288 287 287 286 286 285 284 282 281 280 279
295 295 295 295 295 296 296 295 295 294 294 293 292 291 291 290 289 288 287 287 286 285 284 283 282 280 279 279 281 283 283 277 272 269 269 272 272 271 268 269 272 274 277 279 281 282 283 284 286 287 288 289 290 290 291 291 290 290 290 290 290 290 290 290 291 291 291 291 291 291 291 290 290 290 289 289 289 288 287 286 286 284 283 282 281 280
295 295 295 295 295 295 295 294 294 293 292 292 291 291 290 290 289 288 287 286 285 284 282 280 279 277 276 276 277 276 272 268 265 265 266 267 268 267 268 270 273 276 279 281 283 284 285 287 288 289 290 290 291 291 291 291 291 291 291 291 291 291 291 292 292 292 292 292 292 292 292 291 291 291 290 290 289 288 288 287 286 285 284 283 282 281
295 295 296 295 295 294 293 293 293 292 292 292 291 291 291 290 289 288 287 285 283 281 279 276 274 272 271 271 270 267 261 261 262 262 265 267 267 268 270 273 276 280 283 285 286 287 287 288 289 289 290 291 291 291 292 291 292 291 291 291 291 292 292 292 293 293 293 293 292 292 292 292 292 291 291 290 290 289 288 287 286 285 284 284 283 282
296 296 296 296 295 294 293 293 292 292 292 292 291 291 290 289 288 286 284 282 279 276 273 270 268 266 264 264 262 259 257 260 261 263 268 270 271 272 274 277 280 283 285 287 288 288 288 288 289 289 290 290 291 291 292 292 292 292 292 292 292 292 293 293 293 293 293 293 293 293 293 293 292 292 292 291 291 290 289 288 288 287 287 286 286 285
299 298 298 297 296 295 294 294 293 293 293 292 291 290 289 287 285 282 280 277 274 270 266 264 262 260 259 259 258 257 258 261 264 267 271 273 275 277 279 281 283 285 286 287 288 288 288 288 289 289 290 291 292 292 292 293 293 293 293 293 293 293 294 294 294 294 294 294 294 294 294 294 294 293 293 293 293 292 292 291 291 290 290 289 289 289
301 300 299 298 297 296 295 295 294 294 293 292 291 289 287 284 280 277 274 270 266 263 260 259 258 258 258 260 260 260 260 262 265 269 272 274 277 279 281 283 284 285 286 287 288 289 289 289 290 291 292 292 293 293 293 293 293 293 293 294 294 294 294 294 294 294 295 295 295 295 295 295 295 295 295 295 295 295 295 294 294 293 292 291 291 290
303 302 301 299 298 297 297 296 295 294 293 291 289 287 283 278 274 269 265 262 259 257 257 257 258 260 261 263 263 263 263 263 265 268 270 273 277 280 283 284 285 286 287 288 290 290 291 291 291 292 293 293 294 294 294 294 294 294 294 294 294 294 294 295 295 295 296 296 296 296 297 297 297 297 297 297 297 297 296 296 295 294 293 292 291 291
304 303 302 301 300 299 297 296 295 293 291 289 286 282 277 272 268 263 259 257 255 255 256 258 261 263 265 267 268 267 266 265 266 267 270 273 276 280 284 285 286 287 288 289 290 291 291 291 291 292 292 293 293 293 293 293 293 293 293 294 294 294 295 295 296 296 296 297 297 297 297 298 297 297 297 297 297 297 296 295 294 293 293 292 291 291
305 304 303 302 300 299 297 296 294 291 289 286 281 275 270 266 262 258 255 253 252 253 256 259 262 265 268 270 271 271 271 270 269 269 271 274 277 280 283 284 285 286 286 287 288 288 288 288 288 289 290 291 291 292 292 292 292 293 293 294 294 295 295 296 296 297 297 297 298 298 298 297 297 297 297 296 296 296 295 295 294 293 293 292 292 292
305 304 302 301 300 298 296 294 291 289 286 281 275 269 263 259 256 253 251 250 251 253 256 259 262 266 269 272 274 275 275 275 274 274 275 276 278 279 281 282 282 282 282 282 283 284 285 285 285 286 287 288 289 290 291 291 292 293 294 294 295 296 296 296 297 297 297 297 297 297 297 296 296 296 296 295 295 295 295 294 294 293 293 293 292 292
305 303 302 300 299 297 294 291 288 285 282 277 270 263 257 254 252 251 251 251 253 255 258 261 264 267 271 274 276 278 278 279 279 279 278 279 279 278 279 279 279 279 278 278 278 280 281 282 283 284 285 287 288 289 290 291 292 293 294 295 296 296 296 297 297 297 297 297 296 296 296 295 295 295 295 295 295 295 294 294 294 293 293 293 293 292
304 303 301 300 298 295 292 288 284 281 277 271 265 259 254 251 251 251 253 255 257 260 262 265 267 270 272 275 278 279 280 280 280 280 280 280 279 279 278 278 278 278 278 277 277 277 279 281 284 285 286 287 288 289 290 291 292 293 294 295 295 296 296 296 296 296 296 296 295 295 295 295 294 294 294 294 294 294 294 293 293 293 293 292 292 292
303 302 300 299 297 294 290 286 281 276 272 266 261 256 253 251 252 254 256 259 261 264 266 268 269 271 272 274 276 277 279 280 280 280 280 280 279 279 279 279 280 281 281 280 279 277 276 277 282 285 287 287 288 289 289 290 291 292 293 293 294 294 294 294 294 294 294 294 294 294 293 293 293 293 293 293 293 293 293 293 293 292 292 292 291 291
303 301 299 298 295 293 289 284 278 273 267 262 258 255 254 254 255 257 260 262 264 266 267 268 269 270 270 271 272 274 276 278 280 281 281 281 280 280 280 281 282 283 284 284 283 281 276 270 273 278 282 284 285 286 286 287 288 289 290 290 291 291 292 292 292 292 292 292 292 292 292 292 292 292 292 292 292 292 292 292 292 292 292 292 291 291
302 300 298 296 293 290 286 281 275 269 264 260 257 255 255 257 259 261 262 264 265 266 267 267 268 268 269 269 270 272 274 277 279 281 282 282 281 281 281 282 283 284 285 285 286 285 282 275 270 270 273 276 278 280 281 282 283 284 285 286 286 287 288 288 289 289 289 289 289 289 290 290 290 291 291 291 292 292 292 293 293 293 293 292 292 291
301 299 296 294 291 288 283 278 273 267 262 259 257 257 258 259 261 263 264 265 265 266 266 266 267 267 268 269 270 272 274 276 278 280 281 282 282 282 282 283 283 284 285 286 286 287 286 283 279 274 271 271 272 274 276 277 278 279 281 282 282 283 283 284 285 286 286 287 287 287 288 289 289 290 290 291 291 292 293 293 294 294 294 294 293 293
300 298 295 292 289 285 281 276 270 265 261 259 258 259 260 262 263 264 265 265 265 265 265 266 266 267 267 268 270 271 273 276 278 280 281 281 282 282 282 283 284 285 285 286 287 287 287 287 285 282 278 274 272 272 273 274 275 277 278 279 279 280 280 281 282 283 284 285 285 286 287 288 288 289 290 291 292 292 293 294 294 294 294 294 294 293
300 297 294 291 287 283 278 273 269 265 262 261 261 261 263 264 265 265 265 265 265 265 264 265 265 266 267 268 269 271 272 275 277 279 280 281 282 282 283 283 284 285 286 287 288 288 288 288 287 286 284 282 278 275 274 275 276 277 277 278 278 279 279 280 281 282 283 284 285 285 286 287 288 289 289 290 291 292 293 293 294 294 294 294 294 293
299 296 293 289 285 281 276 272 268 265 263 262 263 264 265 265 266 266 265 265 264 264 264 264 265 265 266 267 269 270 272 274 276 278 280 281 282 283 284 285 285 286 287 288 289 289 290 290 289 289 288 287 285 282 279 277 277 278 278 279 279 279 280 280 281 282 282 283 284 285 285 286 287 288 288 289 290 291 292 293 293 293 293 293 293 293
299 296 292 288 284 279 275 270 267 265 264 264 265 265 266 266 266 266 265 264 264 264 264 264 265 265 266 267 268 270 272 273 275 277 279 281 282 284 285 286 287 288 288 289 290 291 291 292 292 292 291 291 290 288 286 284 282 280 280 280 280 280 280 281 281 282 282 283 283 284 285 285 286 287 287 288 289 290 291 292 292 293 293 293 293 293
298 294 291 287 282 278 274 270 268 266 265 265 266 266 267 267 266 266 265 265 265 264 265 265 266 266 267 268 269 271 272 274 276 278 279 281 283 284 285 286 287 288 289 290 291 292 293 294 294 295 294 294 293 293 292 290 288 286 284 282 281 282 282 282 282 283 283 283 284 284 284 285 285 286 287 288 289 290 291 292 292 292 292 292 292 293
296 293 289 285 281 277 273 270 268 267 266 266 266 267 267 267 267 266 266 265 265 266 266 266 267 268 269 270 272 273 274 276 278 279 281 282 284 285 286 287 288 289 290 291 292 293 294 295 296 297 297 297 297 296 296 295 294 292 289 287 285 283 283 283 284 284 284 284 284 285 285 285 285 286 287 288 290 291 292 292 292 292 292 291 291 291
295 291 287 283 280 276 272 270 268 267 267 267 267 267 267 267 267 267 267 267 267 267 268 268 269 271 272 273 274 275 277 278 280 281 282 284 285 286 287 288 289 290 291 292 293 294 295 296 297 298 299 299 299 299 299 299 297 296 294 292 289 287 286 286 286 286 286 286 286 286 286 286 286 287 288 289 291 292 293 293 293 293 292 292 291 290
293 289 285 282 278 275 272 269 268 267 267 268 268 268 268 268 268 268 269 269 269 269 270 271 272 273 275 276 277 277 279 280 281 283 284 285 286 287 289 290 290 291 292 293 294 295 296 298 299 300 300 300 300 301 301 300 300 298 297 295 294 292 290 290 289 288 288 288 288 287 287 287 287 288 289 290 292 293 294 294 294 294 293 293 292 292
292 288 284 281 277 274 272 270 269 268 268 268 269 269 269 269 269 270 270 270 271 271 272 273 273 275 276 277 278 279 281 282 283 285 286 287 288 289 290 291 292 292 293 294 295 296 297 298 300 301 301 301 302 302 302 302 301 300 299 298 297 296 295 294 292 291 290 289 289 289 289 289 289 290 291 292 293 294 295 295 295 295 295 294 293 293
292 288 284 281 277 274 272 271 270 270 270 270 270 270 270 270 270 271 271 272 272 273 273 274 275 275 276 277 279 280 282 284 285 286 288 289 290 291 292 292 293 293 294 295 296 297 298 299 300 301 302 302 303 303 303 303 302 301 301 300 300 300 299 298 296 294 292 291 291 291 291 291 291 291 292 293 294 295 295 295 296 296 295 295 295 294
293 289 285 281 278 276 274 272 271 271 271 271 271 271 271 271 271 272 272 273 273 274 274 275 276 276 277 278 279 280 282 284 286 287 288 289 290 291 292 293 293 294 295 296 297 298 299 300 301 302 303 303 304 305 305 304 303 303 302 302 301 301 300 300 298 297 295 294 293 292 292 292 292 292 293 293 294 295 295 295 296 296 296 296 295 295
295 290 286 283 280 277 275 274 273 272 272 272 272 272 272 272 272 273 273 274 274 275 275 276 276 277 277 278 279 280 282 284 286 287 288 289 290 291 291 292 293 294 295 296 297 299 300 301 302 303 303 304 304 305 305 305 304 303 303 302 302 301 300 300 299 297 296 295 294 293 293 293 293 293 293 294 294 294 294 295 296 296 295 295 294 293
296 292 288 284 281 279 277 275 274 274 273 273 273 273 273 274 274 274 275 275 275 276 276 277 277 277 278 278 279 280 281 283 285 286 287 288 289 290 291 292 293 294 295 296 298 299 300 301 303 304 304 305 305 305 304 304 304 303 303 302 301 300 299 299 298 297 296 295 295 294 293 293 293 293 293 293 293 294 294 295 295 295 294 293 292 291
296 293 289 286 283 281 279 277 276 275 275 275 275 275 275 275 275 276 276 276 276 277 277 278 278 278 279 279 280 281 282 283 284 285 286 287 288 289 290 291 292 293 294 296 297 298 300 301 302 303 304 304 304 303 303 302 302 302 301 301 300 299 298 297 297 296 295 295 294 294 294 293 293 293 293 292 292 292 293 293 293 293 293 292 291 290
296 293 290 288 285 283 281 279 278 277 276 276 276 276 277 277 277 277 277 277 277 278 278 278 278 279 280 281 282 283 284 285 285 285 285 286 286 287 288 290 291 292 294 295 296 298 299 300 301 302 303 303 302 301 301 300 300 300 299 299 299 298 297 296 296 295 294 294 294 294 293 293 293 293 292 292 291 292 292 292 292 293 293 292 292 291
297 294 292 289 287 285 283 281 280 279 278 278 278 278 278 278 278 278 278 278 278 278 279 279 279 280 281 282 283 285 285 286 286 286 286 287 287 288 289 290 291 292 294 295 296 297 298 299 299 300 301 301 300 300 299 299 299 299 298 298 298 297 297 296 296 295 295 294 294 294 293 293 293 293 292 292 292 292 292 293 294 295 295 295 295 294
298 296 293 291 289 287 285 284 282 281 280 280 279 279 279 280 280 279 279 279 279 279 280 280 281 281 282 283 284 285 286 287 287 287 287 288 288 289 290 291 292 293 294 295 295 296 297 297 298 298 299 299 299 299 299 299 299 299 299 298 298 298 297 297 296 296 295 295 295 294 294 294 294 294 294 294 294 295 295 295 297 298 299 299 298 297
Height
3039 3038 3038 3038 3037 3036 3035 3034 3033 3033 3033 3033 3032 3032 3031 3031 3031 3031 3031 3031 3032 3033 3034 3035 3035 3035 3035 3035 3035 3035 3035 3035 3035 3035 3035 3034 3034 3034 3034 3034 3035 3035 3034 3034 3034 3034 3034 3034 3033 3033 3033 3033 3033 3033 3033 3033 3033 3033 3032 3032 3032 3032 3032 3032 3031 3031 3031 3031 3031 3030 3030 3030 3030 3030 3029 3029 3029 3029 3029 3028 3028 3028 3028 3029 3029 3029
3037 3037 3036 3036 3035 3034 3033 3032 3032 3031 3031 3031 3031 3031 3030 3030 3030 3030 3030 3030 3031 3032 3032 3033 3033 3033 3033 3033 3032 3032 3032 3032 3032 3032 3032 3032 3032 3032 3032 3032 3032 3032 3032 3032 3032 3031 3031 3031 3031 3031 3030 3030 3030 3030 3030 3030 3030 3029 3029 3029 3029 3028 3028 3028 3028 3028 3027 3027 3027 3027 3026 3026 3026 3026 3026 3025 3025 3025 3025 3025 3025 3025 3025 3025 3025 3025
3036 3036 3035 3035 3034 3033 3032 3031 3030 3030 3029 3029 3029 3029 3028 3028 3028 3029 3029 3029 3030 3030 3030 3031 3031 3031 3030 3030 3030 3030 3030 3030 3030 3030 3030 3030 3030 3030 3030 3030 3030 3029 3029 3029 3029 3028 3028 3028 3028 3028 3027 3027 3027 3027 3027 3027 3026 3026 3026 3026 3026 3025 3025 3025 3025 3024 3024 3023 3023 3023 3022 3022 3022 3022 3022 3022 3021 3021 3021 3021 3021 3021 3021 3021 3021 3022
3036 3035 3034 3034 3033 3032 3031 3030 3029 3028 3028 3027 3027 3027 3027 3027 3027 3027 3028 3028 3028 3028 3028 3028 3028 3028 3028 3028 3028 3028 3028 3027 3027 3027 3027 3027 3027 3027 3027 3027 3027 3027 3027 3026 3026 3026 3026 3025 3025 3025 3025 3024 3024 3024 3023 3023 3023 3023 3023 3022 3022 3022 3022 3021 3021 3021 3020 3020 3019 3019 3019 3019 3018 3018 3018 3018 3018 3018 3018 3017 3017 3017 3017 3017 3017 3018
3034 3034 3033 3033 3032 3031 3031 3030 3029 3028 3027 3027 3027 3027 3026 3026 3026 3026 3026 3026 3026 3026 3026 3026 3026 3026 3026 3026 3026 3026 3026 3025 3025 3025 3025 3025 3025 3024 3024 3024 3024 3024 3023 3023 3023 3023 3022 3022 3022 3022 3022 3021 3021 3021 3020 3020 3020 3020 3019 3019 3019 3018 3018 3017 3017 3017 3017 3016 3016 3016 3015 3015 3015 3015 3014 3014 3014 3014 3014 3014 3014 3014 3014 3014 3014 3014
3033 3032 3032 3032 3031 3030 3030 3029 3028 3027 3027 3027 3026 3026 3026 3026 3025 3025 3025 3025 3024 3024 3024 3024 3024 3024 3024 3024 3024 3024 3023 3023 3022 3022 3022 3022 3022 3022 3022 3021 3021 3021 3021 3020 3020 3020 3020 3019 3019 3019 3018 3018 3018 3017 3017 3017 3017 3016 3016 3015 3015 3015 3014 3014 3013 3013 3013 3012 3012 3012 3012 3012 3011 3011 3011 3011 3010 3010 3010 3010 3010 3010 3010 3010 3010 3010
3031 3031 3030 3030 3029 3029 3028 3028 3027 3027 3027 3026 3026 3025 3025 3024 3024 3024 3023 3023 3023 3023 3023 3022 3022 3022 3022 3022 3022 3021 3021 3020 3020 3019 3019 3019 3019 3019 3018 3018 3018 3018 3017 3017 3017 3017 3017 3016 3016 3015 3015 3015 3014 3014 3014 3013 3013 3012 3012 3012 3011 3011 3010 3010 3010 3009 3009 3009 3009 3008 3008 3008 3007 3007 3007 3007 3007 3007 3006 3006 3006 3006 3006 3006 3006 3006
3030 3029 3029 3028 3028 3027 3027 3026 3026 3026 3025 3025 3025 3024 3024 3023 3023 3023 3022 3022 3022 3022 3021 3021 3021 3021 3020 3020 3019 3019 3018 3017 3017 3017 3016 3016 3016 3016 3015 3015 3015 3015 3014 3014 3014 3013 3013 3013 3012 3012 3012 3011 3011 3010 3010 3009 3009 3008 3008 3008 3007 3007 3007 3007 3006 3006 3006 3006 3005 3005 3005 3005 3004 3004 3004 3004 3003 3003 3003 3003 3003 3002 3002 3002 3002 3002
3029 3028 3027 3027 3026 3026 3025 3025 3025 3024 3024 3024 3023 3023 3023 3022 3022 3022 3021 3021 3021 3020 3020 3019 3019 3018 3018 3017 3016 3016 3015 3014 3014 3013 3013 3013 3013 3013 3012 3012 3012 3012 3011 3011 3011 3010 3010 3009 3009 3008 3008 3008 3007 3007 3006 3006 3005 3005 3005 3004 3004 3004 3003 3003 3003 3003 3002 3002 3002 3002 3002 3002 3002 3001 3001 3001 3001 3000 3000 3000 3000 3000 3000 2999 2999 2999
3027 3027 3026 3026 3025 3025 3024 3024 3023 3023 3023 3023 3022 3022 3022 3021 3020 3020 3019 3019 3018 3018 3017 3017 3017 3016 3015 3014 3013 3012 3012 3012 3011 3011 3011 3011 3011 3010 3010 3009 3009 3009 3008 3008 3007 3007 3007 3006 3006 3005 3005 3004 3004 3003 3003 3002 3002 3002 3002 3002 3001 3001 3001 3001 3000 3000 3000 3000 3000 2999 2999 2999 2999 2999 2998 2998 2998 2998 2998 2997 2997 2997 2997 2997 2997 2997
3027 3026 3026 3025 3024 3024 3023 3023 3022 3022 3022 3021 3021 3020 3020 3019 3018 3018 3017 3017 3016 3016 3015 3014 3014 3013 3012 3011 3010 3010 3009 3009 3009 3009 3009 3008 3008 3008 3007 3007 3006 3006 3005 3005 3004 3004 3003 3003 3002 3002 3002 3001 3001 3000 3000 3000 3000 2999 2999 2999 2999 2999 2998 2998 2998 2998 2998 2998 2997 2997 2997 2997 2997 2997 2997 2996 2996 2996 2996 2995 2995 2995 2995 2994 2994 2994
3025 3025 3024 3024 3023 3023 3022 3022 3022 3021 3021 3020 3019 3019 3018 3017 3017 3016 3016 3015 3014 3013 3012 3012 3011 3011 3010 3009 3008 3008 3007 3007 3007 3007 3006 3006 3005 3005 3004 3004 3003 3003 3002 3002 3001 3001 3000 3000 3000 2999 2999 2998 2998 2998 2998 2997 2997 2997 2997 2997 2997 2997 2997 2997 2996 2996 2996 2996 2996 2995 2995 2995 2995 2995 2994 2994 2994 2994 2994 2993 2993 2993 2992 2992 2992 2992
3023 3023 3022 3022 3022 3021 3021 3020 3020 3019 3019 3018 3018 3017 3016 3016 3015 3014 3014 3013 3012 3011 3011 3010 3009 3008 3008 3007 3006 3006 3006 3005 3005 3004 3003 3002 3002 3002 3001 3001 3000 3000 2999 2999 2998 2998 2998 2998 2997 2997 2997 2996 2996 2996 2996 2996 2996 2996 2996 2996 2995 2995 2995 2995 2995 2995 2994 2994 2994 2994 2993 2993 2993 2993 2992 2992 2992 2992 2992 2991 2991 2991 2991 2990 2990 2990
3022 3021 3021 3020 3020 3019 3019 3018 3018 3017 3017 3016 3016 3015 3014 3013 3013 3012 3012 3011 3010 3009 3009 3008 3007 3006 3005 3004 3003 3003 3003 3003 3002 3002 3001 2999 2999 2999 2999 2998 2998 2997 2997 2997 2996 2996 2996 2996 2995 2995 2995 2995 2995 2995 2994 2994 2994 2994 2994 2994 2994 2994 2993 2993 2993 2993 2993 2992 2992 2992 2992 2992 2991 2991 2991 2991 2990 2990 2990 2989 2989 2989 2988 2988 2988 2987
3020 3019 3019 3018 3017 3017 3017 3016 3015 3015 3014 3013 3013 3012 3012 3011 3010 3010 3009 3008 3007 3007 3006 3005 3005 3004 3002 3001 3001 3000 3000 3000 3000 2999 2998 2997 2997 2997 2997 2996 2996 2995 2995 2995 2995 2994 2994 2994 2994 2993 2993 2993 2993 2993 2993 2993 2993 2993 2992 2992 2992 2992 2992 2992 2992 2991 2991 2991 2991 2990 2990 2990 2990 2989 2989 2989 2988 2988 2987 2987 2987 2987 2986 2986 2985 2985
3018 3017 3016 3016 3015 3014 3014 3013 3012 3012 3011 3011 3010 3009 3009 3008 3007 3007 3006 3005 3004 3004 3003 3002 3002 3001 3000 2998 2997 2997 2998 2998 2997 2997 2996 2995 2995 2995 2995 2994 2994 2994 2993 2993 2993 2993 2993 2992 2992 2992 2992 2992 2992 2992 2992 2992 2992 2991 2991 2991 2991 2991 2990 2990 2990 2990 2989 2989 2989 2989 2988 2988 2988 2987 2987 2987 2986 2986 2986 2985 2985 2984 2984 2983 2983 2983
3016 3015 3014 3013 3012 3012 3011 3010 3010 3009 3008 3007 3007 3006 3006 3005 3004 3004 3003 3002 3002 3001 3000 3000 2999 2998 2997 2996 2995 2995 2996 2996 2995 2995 2994 2993 2993 2993 2993 2993 2992 2992 2992 2992 2992 2992 2992 2991 2991 2991 2991 2991 2990 2990 2990 2990 2990 2990 2990 2989 2989 2989 2989 2988 2988 2988 2988 2987 2987 2987 2987 2986 2986 2985 2985 2985 2984 2984 2983 2983 2983 2982 2982 2981 2981 2981
3013 3012 3012 3011 3010 3009 3008 3007 3007 3006 3005 3005 3004 3003 3003 3002 3002 3001 3001 3000 2999 2999 2998 2997 2997 2996 2995 2994 2993 2993 2994 2994 2993 2993 2992 2992 2992 2992 2992 2992 2992 2991 2991 2991 2991 2991 2990 2990 2990 2989 2989 2989 2989 2989 2989 2988 2988 2988 2988 2987 2987 2987 2987 2987 2986 2986 2986 2985 2985 2985 2984 2984 2984 2983 2983 2983 2982 2982 2982 2981 2981 2980 2980 2979 2979 2978
3011 3010 3009 3009 3008 3007 3006 3005 3004 3003 3003 3002 3002 3001 3001 3000 2999 2999 2998 2997 2997 2996 2996 2995 2994 2994 2993 2993 2992 2992 2992 2992 2992 2992 2992 2991 2991 2991 2991 2991 2990 2990 2990 2990 2990 2989 2989 2988 2988 2988 2988 2987 2987 2987 2987 2987 2987 2986 2986 2986 2985 2985 2985 2984 2984 2984 2983 2983 2983 2982 2982 2982 2982 2981 2981 2981 2980 2980 2979 2979 2978 2978 2977 2977 2977 2976
3009 3008 3007 3007 3006 3005 3004 3003 3002 3002 3001 3000 2999 2999 2998 2997 2997 2996 2996 2995 2994 2994 2993 2993 2992 2992 2992 2991 2991 2991 2991 2991 2991 2991 2991 2990 2990 2990 2990 2990 2989 2989 2989 2989 2988 2988 2987 2987 2987 2987 2986 2986 2986 2986 2985 2985 2985 2984 2984 2983 2983 2983 2982 2982 2982 2982 2981 2981 2981 2980 2980 2980 2979 2979 2979 2978 2978 2977 2977 2977 2976 2976 2975 2975 2974 2974
3007 3006 3005 3004 3004 3003 3002 3001 3000 2999 2998 2998 2997 2997 2996 2995 2995 2994 2993 2993 2992 2992 2992 2991 2991 2991 2991 2990 2990 2990 2990 2990 2990 2990 2990 2989 2989 2989 2989 2988 2988 2988 2987 2987 2987 2987 2986 2986 2985 2985 2985 2984 2984 2984 2983 2983 2982 2982 2982 2982 2981 2981 2980 2980 2980 2979 2979 2979 2978 2978 2977 2977 2977 2977 2976 2976 2976 2975 2975 2974 2974 2973 2973 2972 2972 2972
3004 3004 3003 3002 3001 3001 3000 2999 2998 2997 2996 2996 2995 2994 2994 2993 2992 2992 2992 2991 2991 2990 2990 2990 2990 2990 2990 2990 2990 2990 2990 2989 2989 2989 2988 2988 2988 2988 2988 2987 2987 2987 2986 2986 2986 2985 2985 2984 2984 2983 2983 2983 2982 2982 2982 2981 2981 2980 2980 2979 2979 2978 2978 2978 2977 2977 2977 2976 2976 2976 2975 2975 2975 2974 2974 2973 2973 2972 2972 2972 2971 2971 2970 2970 2969 2969
3002 3002 3001 3000 2999 2998 2997 2997 2996 2995 2994 2993 2993 2992 2992 2991 2991 2990 2990 2990 2989 2989 2989 2989 2989 2989 2989 2989 2989 2989 2989 2988 2988 2988 2987 2987 2987 2987 2987 2986 2986 2985 2985 2985 2984 2984 2983 2983 2982 2982 2981 2981 2981 2980 2980 2979 2978 2978 2977 2977 2977 2976 2976 2975 2975 2975 2974 2974 2974 2973 2973 2972 2972 2972 2971 2971 2970 2970 2969 2969 2969 2968 2968 2967 2967 2966
3000 2999 2998 2998 2997 2996 2995 2994 2994 2993 2992 2992 2991 2991 2990 2990 2989 2989 2989 2988 2988 2988 2988 2988 2988 2988 2988 2988 2988 2988 2988 2987 2987 2987 2987 2986 2985 2985 2985 2985 2985 2984 2984 2983 2983 2982 2982 2981 2981 2980 2979 2979 2979 2978 2977 2977 2976 2976 2975 2975 2974 2974 2974 2973 2973 2972 2972 2972 2971 2971 2970 2970 2969 2969 2968 2968 2967 2967 2967 2966 2966 2966 2965 2965 2964 2964
2998 2997 2997 2996 2995 2994 2993 2993 2992 2991 2991 2990 2990 2989 2989 2988 2988 2988 2987 2987 2987 2987 2987 2987 2987 2987 2987 2987 2987 2987 2987 2987 2986 2986 2985 2985 2984 2984 2984 2984 2983 2983 2982 2982 2982 2981 2980 2980 2979 2978 2977 2977 2977 2976 2976 2975 2974 2974 2973 2973 2972 2972 2972 2971 2971 2970 2970 2969 2969 2968 2968 2967 2967 2966 2966 2965 2965 2964 2964 2964 2963 2963 2962 2962 2962 2962
2997 2996 2995 2994 2993 2992 2992 2991 2990 2990 2989 2989 2988 2988 2987 2987 2987 2987 2987 2987 2986 2986 2986 2986 2986 2986 2986 2986 2986 2986 2986 2986 2985 2985 2984 2984 2983 2983 2982 2982 2982 2981 2981 2981 2980 2980 2979 2978 2977 2977 2976 2976 2975 2975 2974 2973 2973 2972 2972 2971 2971 2970 2970 2969 2969 2968 2968 2967 2967 2966 2966 2965 2964 2964 2963 2963 2962 2962 2962 2961 2961 2960 2960 2960 2959 2959
2995 2994 2993 2992 2992 2991 2990 2989 2989 2988 2988 2987 2987 2987 2986 2986 2986 2986 2986 2985 2985 2985 2985 2985 2985 2985 2984 2984 2984 2984 2984 2984 2984 2984 2983 2983 2982 2982 2981 2981 2981 2980 2980 2979 2979 2978 2978 2977 2977 2976 2975 2974 2974 2973 2972 2972 2971 2970 2970 2969 2969 2968 2968 2967 2967 2966 2966 2965 2965 2964 2963 2963 2962 2962 2961 2961 2960 2959 2959 2958 2958 2957 2957 2957 2957 2956
2993 2993 2992 2991 2990 2989 2989 2988 2987 2987 2987 2986 2986 2986 2985 2985 2985 2985 2985 2985 2985 2984 2984 2984 2984 2983 2983 2983 2982 2982 2982 2982 2982 2982 2982 2982 2981 2981 2980 2980 2980 2979 2979 2979 2978 2978 2977 2976 2976 2975 2974 2973 2972 2972 2971 2970 2970 2969 2968 2967 2967 2967 2966 2965 2965 2964 2964 2963 2962 2962 2961 2961 2960 2959 2959 2958 2958 2957 2957 2956 2955 2955 2954 2954 2954 2953
2992 2991 2991 2990 2989 2988 2987 2987 2986 2986 2985 2985 2985 2984 2984 2984 2984 2984 2984 2984 2984 2984 2983 2983 2983 2982 2982 2982 2981 2980 2980 2981 2981 2981 2980 2980 2980 2980 2979 2979 2978 2978 2978 2978 2977 2977 2976 2975 2974 2974 2973 2972 2972 2971 2970 2969 2968 2967 2967 2966 2965 2965 2964 2963 2963 2962 2962 2961 2960 2960 2959 2958 2958 2957 2957 2956 2955 2955 2954 2953 2952 2952 2951 2951 2951 2950
2991 2990 2989 2988 2988 2987 2986 2986 2985 2984 2984 2984 2984 2983 2983 2983 2983 2983 2983 2983 2983 2982 2982 2982 2982 2981 2981 2980 2979 2979 2979 2979 2979 2979 2979 2979 2979 2978 2978 2977 2977 2977 2977 2977 2976 2976 2975 2974 2973 2972 2972 2971 2970 2969 2968 2967 2967 2966 2965 2964 2963 2963 2962 2962 2961 2960 2960 2959 2958 2958 2957 2956 2956 2955 2954 2954 2953 2952 2952 2951 2950 2949 2948 2948 2948 2947
2989 2988 2987 2987 2986 2986 2985 2984 2984 2983 2983 2983 2982 2982 2982 2982 2982 2982 2982 2982 2981 2981 2981 2981 2980 2980 2979 2979 2978 2978 2977 2977 2977 2978 2977 2977 2977 2977 2977 2976 2975 2975 2975 2975 2975 2975 2974 2973 2972 2971 2970 2970 2969 2968 2967 2966 2965 2964 2963 2963 2962 2961 2960 2960 2959 2958 2958 2957 2956 2956 2955 2954 2953 2952 2952 2951 2950 2950 2949 2948 2947 2946 2946 2945 2945 2945
2988 2987 2986 2985 2985 2984 2984 2983 2983 2982 2982 2982 2982 2981 2981 2981 2981 2981 2980 2980 2980 2980 2979 2979 2979 2978 2978 2978 2977 2977 2976 2976 2976 2976 2976 2976 2976 2975 2975 2974 2974 2973 2973 2973 2973 2973 2973 2972 2972 2971 2970 2969 2968 2967 2966 2965 2964 2963 2962 2962 2961 2960 2959 2958 2957 2956 2956 2955 2954 2953 2952 2952 2951 2950 2949 2949 2948 2947 2946 2945 2944 2943 2943 2942 2942 2942
2987 2986 2985 2984 2983 2983 2982 2982 2982 2981 2981 2981 2980 2980 2980 2980 2980 2979 2979 2979 2978 2978 2978 2978 2977 2977 2977 2977 2976 2975 2975 2974 2974 2974 2974 2974 2974 2973 2973 2973 2972 2972 2972 2971 2971 2971 2971 2971 2971 2970 2969 2968 2967 2967 2965 2964 2963 2962 2961 2960 2959 2958 2957 2956 2955 2954 2954 2953 2952 2951 2950 2949 2949 2948 2947 2946 2945 2944 2943 2943 2942 2941 2940 2939 2939 2938
2986 2985 2984 2983 2982 2982 2981 2981 2980 2980 2980 2979 2979 2979 2979 2978 2978 2978 2978 2977 2977 2977 2977 2976 2976 2976 2975 2975 2974 2974 2973 2973 2972 2972 2972 2972 2972 2972 2972 2971 2970 2970 2970 2969 2969 2969 2969 2969 2969 2969 2968 2968 2967 2966 2964 2963 2962 2961 2960 2959 2958 2957 2956 2955 2954 2952 2952 2951 2950 2949 2948 2947 2946 2945 2944 2943 2942 2942 2941 2940 2939 2938 2937 2936 2936 2935
2984 2983 2982 2982 2981 2980 2980 2979 2979 2979 2978 2978 2978 2977 2977 2977 2977 2977 2976 2976 2976 2975 2975 2975 2974 2974 2974 2973 2973 2972 2972 2971 2971 2971 2971 2970 2970 2970 2970 2969 2969 2968 2967 2967 2967 2967 2967 2967 2966 2966 2966 2966 2965 2965 2963 2962 2961 2960 2959 2958 2957 2956 2954 2953 2952 2951 2950 2949 2948 2947 2946 2945 2944 2943 2942 2941 2940 2939 2938 2937 2937 2935 2934 2933 2932 2932
2982 2982 2981 2980 2979 2979 2978 2978 2977 2977 2977 2977 2976 2976 2976 2976 2975 2975 2975 2975 2974 2974 2974 2973 2973 2972 2972 2972 2971 2971 2970 2969 2969 2969 2968 2968 2968 2968 2967 2967 2967 2966 2966 2965 2965 2965 2964 2964 2964 2964 2963 2963 2963 2963 2962 2961 2959 2958 2957 2956 2955 2954 2952 2951 2950 2949 2948 2947 2946 2945 2944 2942 2942 2940 2939 2938 2937 2937 2936 2935 2934 2933 2932 2931 2930 2929
2981 2980 2979 2978 2978 2977 2977 2977 2976 2976 2976 2975 2975 2975 2974 2974 2974 2973 2973 2973 2973 2972 2972 2972 2971 2971 2970 2970 2969 2969 2968 2968 2967 2967 2967 2966 2966 2966 2965 2965 2965 2964 2963 2963 2962 2962 2962 2962 2961 2961 2961 2961 2960 2960 2960 2959 2958 2957 2955 2954 2953 2952 2950 2949 2948 2947 2946 2945 2944 2942 2942 2940 2939 2938 2937 2936 2935 2934 2934 2933 2932 2931 2930 2929 2928 2927
2979 2978 2977 2977 2976 2976 2975 2975 2975 2974 2974 2974 2973 2973 2973 2972 2972 2972 2972 2971 2971 2971 2970 2970 2969 2969 2968 2968 2967 2967 2967 2966 2966 2965 2965 2964 2964 2963 2963 2963 2962 2962 2961 2961 2960 2959 2959 2959 2958 2958 2958 2957 2957 2957 2957 2956 2955 2954 2953 2952 2951 2949 2948 2947 2945 2944 2943 2942 2941 2940 2939 2938 2937 2936 2935 2934 2933 2932 2931 2931 2930 2928 2927 2926 2925 2925
2977 2977 2976 2975 2975 2974 2974 2973 2973 2973 2972 2972 2972 2972 2971 2971 2971 2970 2970 2970 2969 2969 2968 2968 2967 2967 2967 2966 2966 2965 2965 2964 2964 2963 2963 2962 2962 2962 2961 2961 2960 2960 2959 2958 2957 2957 2957 2956 2955 2955 2955 2954 2954 2954 2953 2953 2952 2951 2950 2949 2948 2947 2946 2944 2943 2942 2941 2939 2938 2937 2936 2935 2934 2933 2932 2931 2930 2930 2929 2928 2927 2926 2925 2924 2923 2922
2976 2975 2974 2974 2973 2973 2972 2972 2972 2971 2971 2971 2970 2970 2970 2969 2969 2968 2968 2968 2967 2967 2967 2966 2966 2965 2965 2964 2964 2963 2963 2962 2962 2961 2961 2960 2960 2959 2959 2958 2958 2957 2957 2956 2955 2955 2954 2953 2952 2952 2952 2951 2951 2951 2950 2950 2949 2947 2947 2946 2945 2945 2943 2942 2940 2939 2938 2937 2936 2935 2934 2932 2932 2931 2930 2929 2928 2927 2927 2926 2925 2924 2923 2922 2921 2920
2974 2973 2973 2972 2972 2972 2971 2971 2970 2970 2969 2969 2969 2968 2968 2967 2967 2967 2967 2966 2966 2965 2965 2965 2964 2964 2963 2962 2962 2961 2961 2960 2960 2959 2959 2958 2957 2957 2957 2956 2955 2955 2954 2954 2953 2952 2951 2951 2950 2949 2948 2948 2947 2947 2947 2946 2945 2944 2943 2942 2941 2941 2940 2939 2938 2937 2935 2934 2933 2932 2931 2930 2929 2928 2927 2926 2926 2925 2924 2923 2922 2921 2921 2919 2919 2918
2973 2972 2972 2971 2970 2970 2969 2969 2969 2968 2968 2967 2967 2967 2966 2966 2966 2965 2965 2964 2964 2964 2963 2963 2962 2962 2962 2961 2960 2959 2959 2958 2958 2957 2957 2956 2955 2955 2954 2953 2953 2952 2952 2951 2950 2950 2949 2948 2947 2946 2946 2945 2944 2943 2943 2943 2942 2941 2939 2938 2937 2937 2937 2937 2935 2934 2932 2931 2930 2929 2928 2927 2926 2925 2925 2924 2923 2922 2921 2920 2920 2919 2918 2917 2916 2915
2971 2971 2970 2969 2969 2968 2968 2967 2967 2967 2966 2966 2966 2965 2965 2964 2964 2963 2963 2962 2962 2962 2962 2961 2961 2960 2960 2959 2958 2958 2957 2956 2956 2955 2954 2954 2953 2952 2952 2951 2950 2949 2949 2948 2947 2947 2946 2945 2944 2943 2942 2942 2941 2940 2940 2939 2938 2937 2936 2935 2934 2933 2933 2933 2932 2931 2930 2928 2927 2926 2925 2924 2923 2922 2922 2921 2921 2920 2919 2918 2917 2916 2915 2914 2914 2913
2970 2969 2969 2968 2967 2967 2967 2966 2966 2965 2965 2964 2964 2963 2963 2962 2962 2962 2961 2961 2960 2960 2960 2959 2959 2959 2958 2957 2957 2956 2955 2954 2954 2953 2952 2951 2951 2950 2949 2948 2947 2947 2946 2945 2945 2944 2943 2943 2942 2941 2940 2939 2938 2937 2937 2936 2935 2934 2933 2932 2931 2930 2929 2929 2928 2928 2927 2926 2925 2923 2922 2921 2920 2920 2919 2919 2918 2917 2917 2916 2915 2914 2913 2912 2911 2910
2968 2967 2967 2967 2966 2966 2965 2964 2964 2963 2963 2962 2962 2962 2961 2960 2960 2960 2959 2959 2958 2958 2958 2957 2957 2957 2957 2956 2955 2954 2954 2953 2952 2951 2950 2949 2948 2947 2947 2946 2945 2944 2943 2942 2942 2941 2940 2940 2939 2938 2937 2936 2935 2934 2933 2932 2932 2931 2930 2929 2928 2927 2927 2926 2925 2924 2923 2922 2922 2921 2920 2918 2918 2917 2917 2916 2916 2915 2914 2913 2913 2912 2911 2910 2909 2908
2967 2966 2965 2965 2964 2964 2963 2963 2962 2962 2961 2961 2960 2960 2959 2959 2958 2958 2957 2957 2957 2957 2956 2956 2955 2955 2955 2954 2954 2953 2952 2951 2950 2949 2948 2947 2946 2945 2944 2943 2942 2942 2941 2940 2939 2938 2937 2937 2936 2935 2934 2933 2932 2932 2931 2929 2928 2928 2927 2927 2926 2925 2924 2923 2922 2921 2920 2920 2919 2918 2917 2916 2915 2914 2914 2913 2913 2912 2912 2911 2911 2910 2909 2908 2907 2906
2965 2964 2963 2963 2962 2962 2961 2961 2960 2960 2959 2959 2958 2957 2957 2957 2957 2956 2956 2955 2955 2954 2954 2954 2953 2953 2953 2952 2952 2951 2950 2950 2948 2947 2946 2945 2944 2943 2942 2941 2940 2939 2938 2937 2937 2936 2935 2934 2933 2932 2932 2931 2930 2929 2928 2927 2926 2925 2924 2924 2923 2922 2922 2921 2920 2919 2918 2917 2916 2915 2914 2913 2912 2912 2911 2911 2910 2910 2910 2909 2908 2908 2907 2906 2905 2903
2963 2962 2962 2961 2961 2960 2959 2959 2958 2958 2957 2957 2956 2956 2955 2955 2954 2954 2953 2953 2953 2952 2952 2952 2951 2951 2950 2950 2949 2949 2948 2947 2947 2946 2944 2943 2942 2941 2940 2939 2938 2937 2936 2935 2934 2933 2932 2932 2931 2930 2929 2928 2927 2926 2926 2925 2924 2922 2922 2921 2920 2920 2919 2918 2917 2916 2915 2914 2913 2912 2912 2911 2910 2909 2908 2908 2907 2907 2907 2907 2907 2906 2905 2903 2902 2901
2961 2961 2960 2959 2959 2958 2957 2957 2956 2956 2955 2955 2954 2953 2953 2953 2952 2952 2951 2951 2951 2950 2950 2949 2949 2948 2948 2947 2947 2946 2946 2945 2944 2943 2942 2941 2940 2939 2938 2937 2936 2935 2934 2933 2932 2931 2930 2929 2929 2928 2927 2926 2925 2924 2923 2922 2922 2921 2920 2919 2918 2917 2916 2916 2915 2914 2913 2912 2911 2910 2909 2908 2907 2906 2905 2905 2904 2904 2904 2904 2904 2903 2902 2901 2899 2898
2959 2959 2958 2957 2957 2956 2955 2955 2954 2954 2953 2952 2952 2952 2951 2950 2950 2949 2949 2948 2948 2947 2947 2947 2946 2946 2946 2945 2944 2943 2943 2942 2942 2941 2940 2938 2937 2937 2936 2935 2933 2932 2932 2931 2930 2929 2928 2927 2927 2926 2925 2924 2922 2921 2920 2920 2919 2918 2917 2917 2915 2914 2913 2912 2912 2911 2910 2909 2908 2907 2907 2906 2905 2904 2903 2902 2901 2901 2901 2901 2901 2900 2899 2898 2897 2895
2958 2957 2956 2956 2955 2954 2953 2953 2952 2952 2951 2950 2950 2949 2949 2948 2947 2947 2946 2946 2945 2945 2944 2944 2944 2943 2943 2942 2942 2941 2940 2939 2939 2938 2937 2936 2935 2934 2933 2932 2931 2930 2929 2928 2927 2926 2925 2925 2924 2924 2923 2922 2920 2918 2917 2917 2917 2916 2915 2914 2913 2912 2911 2910 2909 2908 2907 2907 2906 2905 2904 2903 2902 2901 2900 2899 2898 2897 2897 2897 2897 2897 2896 2895 2893 2892